[[{"header":{"parameterUnit":"m.s-1","parameterCategory":1,"la1":30.2991,"la2":30.254,"lo1":-89.0895,"lo2":-89.0444,"dy":0.0017,"dx":0.0017,"nx":28,"ny":28,"refTime":"2025-06-23T03:00:00:Z","depth":0,"parameterNumber":2,"parameterNumberName":"U-component_of_WINDS"},"data":[0,0,0,0,0,0,0,0,0,0,0,0,0,0,0,0,0,0,0,0,0,0,0,0,0,0,0,0,0,0,0,0,0,0,0,0,0,0,0,0,0,0,0,0,0,0,0,0,0,0,0,0,0,0,0,0,0,0,-2.9894,-2.9894,0,-2.9893,-2.9893,-2.9893,-2.9782,-2.9779,-2.9776,-2.9774,-2.9776,-2.9778,-2.9781,0,0,0,0,0,0,0,0,0,0,0,0,0,-2.9803,-2.9806,-2.9894,-2.9894,-2.9894,-2.9893,-2.9893,-2.9893,-2.9783,-2.9779,-2.9776,-2.9772,-2.9775,-2.9778,-2.9781,0,0,0,0,0,0,0,0,0,0,0,0,0,-2.9827,-2.9806,-2.9894,-2.9839,-2.9834,-2.9893,-2.9893,-2.9893,-2.9783,-2.9779,-2.9775,-2.9771,-2.9774,-2.9778,-2.9782,-2.9895,0,0,-2.9795,-2.9796,0,0,0,0,0,0,0,0,-2.9826,-2.983,-2.9847,-2.9842,-2.9837,-2.9833,-2.9862,-2.9894,-2.9784,-2.9803,-2.9773,-2.9768,-2.9799,-2.98,-2.981,-2.9895,-2.9895,-2.9795,-2.9798,-2.9799,-2.9801,0,0,0,0,0,0,0,-2.9824,-2.983,-2.9894,-2.9847,-2.9841,-2.9815,-2.9814,-2.9868,-2.9825,-2.9801,-2.9793,-2.9794,-2.9795,-2.9806,-2.9809,-2.9896,-2.9795,-2.9799,-2.9801,-2.9803,-3.0077,-3.0081,0,0,0,0,0,0,-2.983,-2.9829,-2.9894,-2.9894,-2.982,-2.982,-2.9819,-2.9839,-2.9824,-2.9818,-2.9798,-2.9789,-2.9801,-2.9805,-2.9809,-2.9943,-2.9799,-2.9803,-2.9806,-3.0072,-3.0078,-3.0083,0,0,0,0,0,0,-2.9828,-2.9837,-2.9894,-2.9859,-2.9864,-2.9826,-2.985,-2.9841,-2.9852,-2.9822,-2.9814,-2.9817,-2.9798,-2.9803,-2.9875,-2.9941,-2.9805,-2.9809,-3.0066,-3.0074,-3.008,-3.021,0,0,0,0,0,0,-2.9826,-2.9837,-2.9878,-2.9861,-2.9867,-2.9959,-2.9854,-2.9844,-2.9859,-2.9848,-2.9838,-2.9832,-2.9795,-2.9869,-2.9879,-2.9944,-2.9812,-3.006,-3.007,-3.0078,-3.02,-3.0221,-3.0239,0,0,0,0,0,-2.9823,-2.9915,-2.9881,-2.9889,-2.9918,-2.9963,-2.9966,-2.9921,-2.9865,-2.9907,-2.9888,-2.9832,-2.9932,-2.9878,-2.9888,-2.9955,-3.0056,-3.0067,-3.0077,-3.0191,-3.0217,-3.0238,0,0,0,0,0,0,-2.9941,-2.9911,-2.9873,-2.9962,-2.9966,-2.9944,-2.9996,-2.9949,-2.997,-2.9958,-2.9902,-2.9901,-2.9983,-2.9976,-2.9916,-3.0066,-2.9984,-2.9998,-3.0067,-3.0091,-3.011,-3.0111,-2.9816,0,0,0,0,0,-2.9977,-3.0016,-2.9988,-3.0069,-3.0072,-3.0034,-3.0052,-3.0017,-3.0019,-3.0021,-3.0007,-3.0012,-3.0044,-3.0067,-3.0095,-3.0198,-3.0195,-3.0249,-3.0269,-3.0285,-3.0298,-3.0354,-3.0378,-3.0118,-3.0118,-3.0118,0,0,-3.0053,-3.0041,-3.0069,-3.0092,-3.0091,-3.0133,-3.0036,-3.0084,-3.0116,-3.0028,-3.0095,-3.0086,-3.0088,-3.0177,-3.0215,-3.0174,-3.0369,-3.0299,-3.0312,-3.0316,-3.0368,-3.0392,-3.0414,-3.0126,-3.0124,-3.0123,0,0,-3.0212,-3.0206,-3.0274,-3.0275,-3.0275,-3.0249,-3.0266,-3.0251,-3.0242,-3.0308,-3.0244,-3.0281,-3.0338,-3.0343,-3.0353,-3.0517,-3.0467,-3.0527,-3.063,-3.0685,-3.0706,-3.0724,-3.0785,-3.0807,-3.054,-3.054,-3.054,0,-3.0306,-3.0366,-3.0315,-3.0368,-3.0382,-3.0304,-3.0373,-3.0377,-3.0386,-3.0398,-3.0351,-3.0422,-3.0418,-3.0508,-3.0548,-3.0558,-3.0577,-3.0529,-3.0707,-3.0724,-3.074,-3.0798,-3.082,-3.0548,-3.0547,-3.0546,-3.0545,0,-3.0483,-3.0526,-3.0581,-3.0592,-3.0611,-3.0672,-3.0632,-3.0658,-3.0622,-3.0602,-3.0673,-3.0665,-3.0691,-3.071,-3.0675,-3.0796,-3.077,-3.0716,-3.0634,-3.0774,-3.0827,-3.0848,-3.0558,-3.0556,-3.0553,-3.0552,0,0,-3.0716,-3.0699,-3.0721,-3.0726,-3.072,-3.0753,-3.0812,-3.0837,-3.0862,-3.0871,-3.092,-3.0971,-3.0922,-3.0933,-3.0898,-3.0947,-3.108,-3.0887,-3.0886,-3.0925,-3.1216,-3.1258,-3.1284,-3.1047,-3.1051,-3.1054,-3.1216,0,-3.0872,-3.097,-3.0927,-3.1031,-3.1071,-3.0998,-3.105,-3.1053,-3.1037,-3.107,-3.1051,-3.1089,-3.102,-3.1027,-3.1071,-3.1055,-3.1138,-3.1042,-3.1094,-3.1097,-3.1097,-3.1311,-3.1355,-3.1509,-3.1237,-3.124,-3.1242,0,-3.1067,-3.1085,-3.1193,-3.1182,-3.1197,-3.1244,-3.1265,-3.1297,-3.13,-3.1285,-3.1299,-3.1254,-3.1313,-3.123,-3.1312,-3.1247,-3.1266,-3.1261,-3.1266,-3.1271,-3.1179,-3.1324,-3.1557,-3.1581,-3.1274,-3.1272,-3.1269,0,-3.1229,-3.128,-3.1351,-3.1358,-3.1346,-3.1382,-3.1379,-3.1378,-3.1397,-3.1415,-3.1427,-3.1453,-3.1468,-3.149,-3.1454,-3.1396,-3.1542,-3.1455,-3.1532,-3.1534,-3.1567,-3.1566,-3.1809,-3.1577,-3.1577,-3.1576,-3.1576,0,-3.1409,-3.1478,-3.1424,-3.1469,-3.1545,-3.1495,-3.1573,-3.1562,-3.1562,-3.1604,-3.1543,-3.1584,-3.1533,-3.157,-3.1542,-3.1616,-3.1622,-3.1613,-3.1605,-3.162,-3.1621,-3.1632,-3.1621,-3.1582,-3.1581,-3.158,-3.1579,0,-3.1603,-3.1569,-3.1643,-3.1627,-3.1625,-3.1682,-3.1669,-3.171,-3.1689,-3.1744,-3.1754,-3.1722,-3.1763,-3.1729,-3.1768,-3.1749,-3.1848,-3.1823,-3.1847,-3.1841,-3.1921,-3.1915,-3.2181,-3.2214,-3.1959,-3.1962,-3.1964,0,-3.172,-3.1772,-3.1762,-3.1786,-3.1787,-3.1825,-3.1844,-3.1798,-3.1821,-3.183,-3.1871,-3.1906,-3.1932,-3.2001,-3.1982,-3.2013,-3.199,-3.2082,-3.1995,-3.2008,-3.1994,-3.1993,-3.1999,-3.21,-3.2103,-3.2105,-3.2107,0,-3.1934,-3.1915,-3.1944,-3.1969,-3.1993,-3.2011,-3.2023,-3.2046,-3.1999,-3.2028,-3.2069,-3.2089,-3.213,-3.2167,-3.2191,-3.219,-3.2143,-3.2135,-3.2155,-3.2171,-3.2183,-3.218,-3.1897,-3.2129,-3.2127,-3.2125,-3.2124,-3.2123,-3.2094,-3.2138,-3.2138,-3.2173,-3.2178,-3.2192,-3.223,-3.2215,-3.2248,-3.2277,-3.2248,-3.2298,-3.2302,-3.233,-3.2335,-3.2375,-3.2337,-3.2365,-3.2373,-3.2381,-3.2394,-3.2176,-3.2379,-3.2378,-3.2378,-3.2377,-3.2376,0,-3.2306,-3.2303,-3.2336,-3.2355,-3.2384,-3.2335,-3.2347,-3.2375,-3.242,-3.2427,-3.2454,-3.2503,-3.2538,-3.2523,-3.2555,-3.259,-3.257,-3.2601,-3.2599,-3.26,-3.2424,-3.2405,-3.2617,-3.2617,-3.2617,-3.2617,-3.2617,-3.2617,-3.2419,-3.2491,-3.2473,-3.2548,-3.2544,-3.2592,-3.2603,-3.2617,-3.2622,-3.2679,-3.2708,-3.2698,-3.2697,-3.2729,-3.2761,-3.2755,-3.2771,-3.2811,-3.2798,-3.2635,-3.2612,-3.2589,-3.2571,-3.2814,-3.2814,-3.297,-3.2972,-3.2973]},{"header":{"parameterUnit":"m.s-1","parameterCategory":1,"la1":30.2991,"la2":30.254,"lo1":-89.0895,"lo2":-89.0444,"dy":0.0017,"dx":0.0017,"nx":28,"ny":28,"refTime":"2025-06-23T03:00:00:Z","depth":0,"parameterNumber":3,"parameterNumberName":"V-component_of_WINDS"},"data":[0,0,0,0,0,0,0,0,0,0,0,0,0,0,0,0,0,0,0,0,0,0,0,0,0,0,0,0,0,0,0,0,0,0,0,0,0,0,0,0,0,0,0,0,0,0,0,0,0,0,0,0,0,0,0,0,0,0,-0.9631,-0.963,0,-0.9609,-0.9609,-0.9609,-0.9588,-0.9587,-0.9587,-0.9587,-0.9565,-0.9565,-0.9564,0,0,0,0,0,0,0,0,0,0,0,0,0,-0.9652,-0.9652,-0.9631,-0.963,-0.963,-0.9609,-0.9609,-0.9609,-0.9588,-0.9587,-0.9587,-0.9587,-0.9565,-0.9565,-0.9564,0,0,0,0,0,0,0,0,0,0,0,0,0,-0.9638,-0.9652,-0.9631,-0.9617,-0.9616,-0.9609,-0.9609,-0.9609,-0.9588,-0.9587,-0.9587,-0.9587,-0.9565,-0.9565,-0.9564,-0.9569,0,0,-0.9563,-0.9562,0,0,0,0,0,0,0,0,-0.9639,-0.9637,-0.9619,-0.9618,-0.9617,-0.9601,-0.9608,-0.9595,-0.9588,-0.9598,-0.9587,-0.9586,-0.9577,-0.9576,-0.9573,-0.9568,-0.9567,-0.9563,-0.9562,-0.9562,-0.9562,0,0,0,0,0,0,0,-0.964,-0.9638,-0.9622,-0.9619,-0.9617,-0.9612,-0.9609,-0.9606,-0.959,-0.9597,-0.9596,-0.9594,-0.9576,-0.9573,-0.9572,-0.9567,-0.9563,-0.9562,-0.9562,-0.9562,-0.9563,-0.9564,0,0,0,0,0,0,-0.9643,-0.9639,-0.9623,-0.9622,-0.9627,-0.9612,-0.9609,-0.9606,-0.959,-0.9588,-0.9594,-0.9593,-0.9574,-0.9572,-0.9571,-0.9574,-0.9562,-0.9562,-0.9561,-0.9563,-0.9564,-0.9564,0,0,0,0,0,0,-0.9643,-0.9642,-0.9624,-0.963,-0.9627,-0.9612,-0.9609,-0.9606,-0.9603,-0.9588,-0.9585,-0.9594,-0.9574,-0.9572,-0.9569,-0.9573,-0.9561,-0.9561,-0.9563,-0.9563,-0.9564,-0.9582,0,0,0,0,0,0,-0.9644,-0.9642,-0.9644,-0.963,-0.9627,-0.9623,-0.9609,-0.9606,-0.9602,-0.96,-0.9587,-0.9584,-0.9573,-0.957,-0.9569,-0.9573,-0.9561,-0.9562,-0.9563,-0.9564,-0.9581,-0.9584,-0.9585,0,0,0,0,0,-0.9645,-0.9651,-0.9645,-0.9643,-0.9629,-0.9623,-0.9621,-0.9609,-0.9602,-0.9604,-0.9594,-0.9584,-0.9573,-0.957,-0.9568,-0.9572,-0.9562,-0.9563,-0.9563,-0.9581,-0.9583,-0.9585,0,0,0,0,0,0,-0.9667,-0.9649,-0.9642,-0.9643,-0.9635,-0.962,-0.9622,-0.9612,-0.9606,-0.9604,-0.9589,-0.9586,-0.9585,-0.9578,-0.9575,-0.9575,-0.9566,-0.9567,-0.958,-0.9582,-0.9584,-0.9585,-0.956,0,0,0,0,0,-0.9672,-0.9669,-0.9653,-0.9656,-0.9652,-0.9638,-0.9635,-0.9625,-0.9616,-0.9613,-0.9602,-0.9594,-0.9588,-0.9585,-0.9579,-0.958,-0.9576,-0.9582,-0.9584,-0.9585,-0.9586,-0.9584,-0.9586,-0.9566,-0.9566,-0.9566,0,0,-0.9682,-0.9672,-0.9671,-0.966,-0.9652,-0.9649,-0.9635,-0.9632,-0.9629,-0.9612,-0.9609,-0.9601,-0.959,-0.9589,-0.9588,-0.9583,-0.959,-0.9586,-0.9588,-0.9587,-0.9585,-0.9587,-0.9589,-0.9567,-0.9567,-0.9567,0,0,-0.9699,-0.9691,-0.9692,-0.9684,-0.9673,-0.9663,-0.9663,-0.9649,-0.9643,-0.9639,-0.9626,-0.9621,-0.9613,-0.9605,-0.9599,-0.9611,-0.9601,-0.9609,-0.962,-0.9618,-0.962,-0.9621,-0.9624,-0.9625,-0.961,-0.961,-0.961,0,-0.9713,-0.9708,-0.9694,-0.9691,-0.9686,-0.967,-0.967,-0.9663,-0.965,-0.9646,-0.9641,-0.9628,-0.962,-0.9616,-0.9618,-0.9615,-0.9614,-0.9611,-0.9621,-0.9622,-0.9623,-0.9625,-0.9627,-0.9611,-0.9611,-0.9611,-0.9611,0,-0.9725,-0.9721,-0.9723,-0.971,-0.9705,-0.9704,-0.9689,-0.9685,-0.9676,-0.9666,-0.9662,-0.9651,-0.9642,-0.964,-0.9632,-0.9634,-0.9631,-0.9624,-0.9614,-0.9626,-0.9628,-0.9629,-0.9612,-0.9612,-0.9612,-0.9611,0,0,-0.9756,-0.9734,-0.9735,-0.9728,-0.9713,-0.971,-0.9707,-0.9697,-0.9694,-0.9685,-0.9682,-0.9673,-0.9665,-0.9659,-0.9649,-0.9648,-0.9656,-0.964,-0.964,-0.9643,-0.9657,-0.9662,-0.9664,-0.9649,-0.965,-0.965,-0.9657,0,-0.977,-0.9764,-0.9751,-0.9749,-0.9744,-0.9727,-0.9725,-0.9715,-0.9705,-0.9699,-0.9688,-0.9682,-0.9673,-0.9669,-0.9667,-0.9656,-0.9659,-0.9655,-0.9645,-0.9645,-0.9648,-0.9665,-0.9672,-0.968,-0.9658,-0.9658,-0.9659,0,-0.9786,-0.9777,-0.9774,-0.9758,-0.9755,-0.9753,-0.9742,-0.9737,-0.9724,-0.9717,-0.971,-0.9698,-0.9693,-0.9685,-0.9677,-0.9675,-0.967,-0.9663,-0.9663,-0.9662,-0.9653,-0.9663,-0.9682,-0.9683,-0.966,-0.966,-0.966,0,-0.9807,-0.9795,-0.9791,-0.9786,-0.9767,-0.9765,-0.9757,-0.9744,-0.9739,-0.9729,-0.9725,-0.9715,-0.9709,-0.9702,-0.9687,-0.9683,-0.9681,-0.9671,-0.9674,-0.9674,-0.9674,-0.9674,-0.9692,-0.9672,-0.9672,-0.9672,-0.9672,0,-0.9824,-0.9823,-0.98,-0.9798,-0.9796,-0.9779,-0.9777,-0.9768,-0.9756,-0.9751,-0.9736,-0.9732,-0.9713,-0.9706,-0.9695,-0.9689,-0.9687,-0.9681,-0.9678,-0.9682,-0.9683,-0.9678,-0.9677,-0.9672,-0.9672,-0.9672,-0.9672,0,-0.9848,-0.9833,-0.9828,-0.9809,-0.9804,-0.9803,-0.9787,-0.9784,-0.9773,-0.9766,-0.9764,-0.9746,-0.9737,-0.9722,-0.9709,-0.9701,-0.9697,-0.9692,-0.9701,-0.9699,-0.9702,-0.9702,-0.9717,-0.9718,-0.9699,-0.9699,-0.9699,0,-0.9859,-0.9857,-0.9838,-0.9834,-0.9826,-0.9819,-0.9813,-0.9796,-0.979,-0.9775,-0.9773,-0.9762,-0.9753,-0.9739,-0.9725,-0.9714,-0.9708,-0.9714,-0.9707,-0.971,-0.9707,-0.9707,-0.9706,-0.9716,-0.9716,-0.9717,-0.9717,0,-0.988,-0.9872,-0.9864,-0.9853,-0.9845,-0.9836,-0.9825,-0.9822,-0.9803,-0.9797,-0.9787,-0.978,-0.9765,-0.9754,-0.9741,-0.9732,-0.9721,-0.9719,-0.9719,-0.9723,-0.9728,-0.9724,-0.9705,-0.9719,-0.9719,-0.9719,-0.9718,-0.9718,-0.9897,-0.9895,-0.988,-0.9871,-0.9861,-0.9851,-0.9846,-0.9834,-0.9825,-0.9812,-0.9803,-0.9793,-0.9779,-0.976,-0.9751,-0.9743,-0.9738,-0.9738,-0.9738,-0.9738,-0.9739,-0.9729,-0.974,-0.974,-0.974,-0.974,-0.974,0,-0.9917,-0.9906,-0.9898,-0.9883,-0.9875,-0.9865,-0.9852,-0.9846,-0.9838,-0.9826,-0.9816,-0.9804,-0.9793,-0.9777,-0.9765,-0.9761,-0.9755,-0.9758,-0.9758,-0.9756,-0.9745,-0.9746,-0.9763,-0.9763,-0.9763,-0.9763,-0.9763,-0.9763,-0.9926,-0.992,-0.9911,-0.9899,-0.9888,-0.9879,-0.9872,-0.9862,-0.9852,-0.9839,-0.9829,-0.9819,-0.9805,-0.9791,-0.978,-0.9775,-0.9771,-0.9775,-0.9769,-0.9759,-0.9757,-0.9755,-0.9756,-0.9775,-0.9775,-0.9781,-0.9781,-0.9781]}]]